KE4KEW-3 Weather Reports


time (UTC)temp
F
wind
direction
speed
knots
gust
knots
rain 1hr
in
rain 24hr
in
rain mn
in
humidity
%
barometer
mb
20260510043018 48 177 0.0 0.0 0.00 0.00 0.00 79 1013.2
20260510041517 48 177 0.0 0.0 0.00 0.00 0.00 79 1013.1
20260510040014 48 177 0.0 0.0 0.00 0.00 0.00 79 1013.1
20260510034528 49 177 0.0 0.0 0.00 0.00 0.00 78 1013.3
20260510033029 49 177 0.0 0.0 0.00 0.00 0.00 77 1013.2
20260510031525 50 177 0.0 0.0 0.00 0.00 0.00 76 1013.1
20260510030021 51 177 0.0 1.7 0.00 0.00 0.00 74 1013.0
20260510024522 52 177 0.0 1.7 0.00 0.00 0.00 73 1012.7
20260510023016 52 177 0.0 1.7 0.00 0.00 0.00 72 1012.4
20260510021529 53 177 0.0 0.0 0.00 0.00 0.00 73 1012.3
20260510020028 55 177 0.0 0.0 0.00 0.00 0.00 73 1012.2
20260510014504 56 177 0.0 1.7 0.00 0.00 0.00 68 1011.9
20260510013005 56 182 0.9 2.6 0.00 0.00 0.00 71 1011.4
20260510011506 57 209 0.0 1.7 0.00 0.00 0.00 73 1011.2
20260510010004 59 209 0.0 1.7 0.00 0.00 0.00 70 1011.1
20260510004505 61 254 0.0 0.9 0.00 0.00 0.00 65 1010.8
20260510003004 63 329 0.0 1.7 0.00 0.00 0.00 62 1010.4
20260510001507 66 329 0.0 0.0 0.00 0.00 0.00 58 1010.2
20260510000008 67 329 0.0 1.7 0.00 0.00 0.00 55 1009.8
20260509234508 69 215 1.7 3.5 0.00 0.00 0.00 52 1009.6
20260509233007 69 275 1.7 4.3 0.00 0.00 0.00 52 1009.7
20260509231507 69 221 2.6 8.7 0.00 0.00 0.00 52 1009.6
20260509230006 70 190 2.6 4.3 0.00 0.00 0.00 51 1009.6
20260509224508 71 209 3.5 8.7 0.00 0.00 0.00 49 1009.6
20260509223011 72 188 4.3 8.7 0.00 0.00 0.00 47 1009.6
20260509221524 71 245 3.5 6.1 0.00 0.00 0.00 48 1009.7
20260509220006 71 233 3.5 7.0 0.00 0.00 0.00 46 1009.6
20260509214509 72 217 3.5 8.7 0.00 0.00 0.00 47 1009.5
20260509213010 71 214 4.3 8.7 0.00 0.00 0.00 47 1009.6
20260509211510 71 221 3.5 7.8 0.00 0.00 0.00 47 1009.5
20260509210014 74 275 5.2 11.3 0.00 0.00 0.00 45 1009.3
20260509204512 74 222 5.2 12.2 0.00 0.00 0.00 43 1009.3
20260509203012 74 294 2.6 11.3 0.00 0.00 0.00 44 1009.1
20260509201512 74 233 5.2 10.4 0.00 0.00 0.00 42 1009.1
20260509200013 74 284 5.2 11.3 0.00 0.00 0.00 43 1009.1
20260509194516 74 257 5.2 10.4 0.00 0.00 0.00 43 1009.2
20260509193016 74 207 3.5 10.4 0.00 0.00 0.00 44 1009.5
20260509191516 73 237 7.0 12.2 0.00 0.00 0.00 47 1009.6
20260509190022 72 202 5.2 11.3 0.00 0.00 0.00 42 1009.8
20260509184526 70 205 2.6 9.6 0.00 0.00 0.00 46 1009.8
20260509183025 70 265 4.3 7.8 0.00 0.00 0.00 44 1010.0
20260509181518 71 254 2.6 9.6 0.00 0.00 0.00 43 1010.0
20260509180016 70 213 2.6 8.7 0.00 0.00 0.00 46 1010.2
20260509174522 69 276 2.6 3.5 0.00 0.00 0.00 50 1010.6
20260509173019 69 170 0.9 8.7 0.00 0.00 0.00 48 1010.7
20260509171514 69 248 4.3 9.6 0.00 0.00 0.00 46 1011.0
20260509170028 69 189 2.6 7.8 0.00 0.00 0.00 52 1011.1
20260509164510 68 221 4.3 7.8 0.00 0.00 0.00 50 1011.0
20260509163007 67 240 3.5 7.8 0.00 0.00 0.00 52 1011.2
20260509161504 68 270 4.3 8.7 0.00 0.00 0.00 52 1011.1
20260509160004 67 215 4.3 7.0 0.00 0.00 0.00 51 1011.1
20260509154520 67 252 4.3 10.4 0.00 0.00 0.00 53 1011.2
20260509153016 65 217 3.5 8.7 0.00 0.00 0.00 54 1011.3
20260509151515 65 207 4.3 8.7 0.00 0.00 0.00 55 1011.3
20260509150010 64 268 5.2 9.6 0.00 0.00 0.00 56 1011.3
20260509144509 63 231 2.6 7.8 0.00 0.00 0.00 56 1011.3
20260509143005 63 215 5.2 8.7 0.00 0.00 0.00 57 1011.3
20260509141530 63 283 4.3 7.0 0.00 0.00 0.00 58 1011.1
20260509140030 62 235 2.6 6.1 0.00 0.00 0.00 61 1011.5
20260509134520 60 221 2.6 5.2 0.00 0.00 0.00 61 1011.9
20260509133017 60 252 1.7 3.5 0.00 0.00 0.00 61 1012.1
20260509131516 59 281 1.7 4.3 0.00 0.00 0.00 64 1012.4
20260509130010 58 271 2.6 5.2 0.00 0.00 0.00 64 1012.2
20260509124507 57 238 0.0 0.0 0.00 0.00 0.00 69 1012.3
20260509123029 56 235 0.0 0.0 0.00 0.00 0.00 68 1012.3
20260509121523 54 235 0.0 0.0 0.00 0.00 0.00 75 1012.2
20260509120021 52 235 0.0 0.0 0.00 0.00 0.00 74 1012.4
20260509114514 51 235 0.0 0.0 0.00 0.00 0.00 76 1012.3
20260509113014 51 235 0.0 0.0 0.00 0.00 0.00 77 1012.2
20260509111508 50 235 0.0 0.0 0.00 0.00 0.00 72 1012.2
20260509110027 49 235 0.0 0.0 0.00 0.00 0.00 73 1012.1
20260509104524 49 235 0.0 0.0 0.00 0.00 0.00 75 1012.1
20260509103025 48 235 0.0 0.0 0.00 0.00 0.00 74 1012.2
20260509101522 48 235 0.0 0.0 0.00 0.00 0.00 73 1012.3
20260509100020 48 235 0.0 0.0 0.00 0.00 0.00 72 1012.2
20260509094515 48 235 0.0 0.0 0.00 0.00 0.00 73 1012.1
20260509093027 48 256 0.0 0.0 0.00 0.00 0.00 71 1012.3
20260509091525 48 256 0.0 0.0 0.00 0.00 0.00 69 1012.4
20260509090028 49 256 0.0 1.7 0.00 0.00 0.00 67 1012.5
20260509084524 51 34 0.0 0.0 0.00 0.00 0.00 63 1012.3
20260509083021 52 34 0.0 0.0 0.00 0.00 0.00 60 1012.4
20260509081534 53 34 0.0 0.9 0.00 0.00 0.00 60 1012.4
20260509080014 54 36 0.0 0.9 0.00 0.00 0.00 58 1012.5
20260509074512 55 61 0.0 1.7 0.00 0.00 0.00 53 1012.6
20260509073005 56 191 0.0 2.6 0.00 0.00 0.00 51 1012.8
20260509071504 56 223 0.9 4.3 0.00 0.00 0.00 50 1012.9
20260509070004 57 174 0.0 3.5 0.00 0.00 0.00 48 1013.1
20260509064522 57 216 1.7 6.1 0.00 0.00 0.00 48 1013.0
20260509063017 56 182 1.7 4.3 0.00 0.00 0.00 48 1013.3
20260509061513 55 245 2.6 5.2 0.00 0.00 0.00 50 1013.4
20260509060012 54 217 0.0 2.6 0.00 0.00 0.00 52 1013.4
20260509054520 54 217 0.0 1.7 0.00 0.00 0.00 52 1013.6
20260509053008 54 247 0.0 1.7 0.00 0.00 0.00 52 1013.7
20260509051504 54 217 0.0 2.6 0.00 0.00 0.00 52 1013.8
20260509050036 54 218 0.9 4.3 0.00 0.00 0.00 52 1013.7
20260509044519 55 215 1.7 3.5 0.00 0.00 0.00 51 1013.6